Preview of NWS' New Version of Forecast
This preview is not operational and should not be used for support decisions.

Regional Weather Roundup (RWR)

Issued by National Weather Service (NWS)

                            
000
ASCA42 TJSJ 230810
RWRPR 
PUERTO RICO/U.S. VIRGIN ISLANDS HOURLY WEATHER ROUNDUP
NATIONAL WEATHER SERVICE SAN JUAN PR
400 AM AST SAT MAR 23 2019

PRZ001>002-007>008-010-230900-
PUERTO RICO
  
CITY           SKY/WX    TMP DP  RH WIND       PRES   REMARKS
SAN JUAN LMM   PTCLDY    75  68  78 CALM      30.01S                  
CEIBA          PTCLDY    73  68  83 CALM      30.02F                  
$$

VIZ001>002-230900-
U.S. VIRGIN ISLANDS
  
CITY           SKY/WX    TMP DP  RH WIND       PRES   REMARKS
CHARLOTTE AMA  CLEAR     75  70  83 E8        30.00S                  
CHRISTIANSTED  PTCLDY    73  68  83 NE5       30.00F                  
$$

HOURLY WEATHER ROUNDUP FOR THE NEWS MEDIA
  
CITY           SKY/WX    TMP DP  RH WIND       PRES   REMARKS
ORLANDO        FAIR      56  49  77 NW3       30.11F                  
NEW YORK       CLOUDY    35  22  58 NW29G45   29.61R WCI  22          
NEWARK         MOCLDY    35  20  54 W30G38    29.64R WCI  22          
CHICAGO        FAIR      28  24  85 CALM      30.26R                  
HARTFORD       LGT SNOW  33  33 100 W14G28    29.31R FOG     WCI  23  
BOSTON         LGT SNOW  35  30  82 W20G33    29.24  WCI  24          
DALLAS         CLOUDY    66  45  46 S7        30.04R                  
PHILADELPHIA   CLOUDY    37  20  50 W17G26    29.76R WCI  27          
LOS ANGELES    MOCLDY    57  51  80 W9        30.16S                  
WASHINGTON DC  FAIR      36  21  54 NW22G33   29.91R WCI  25